Regional Weather Roundup
Issued by NWS Newport/Morehead, NC

Current Version | Previous Version | Text Only | Print | Product List | Glossary On
Versions: 1 2 3 4 5 6 7 8 9 10 11 12 13 14 15 16 17 18 19 20 21 22 23 24 25 26 27 28 29 30 31 32 33 34 35 36 37 38 39 40 41 42 43 44 45 46 47 48 49 50
000
ASUS42 KMHX 240024
RWRMHX
WEATHER ROUNDUP FOR EASTERN NORTH CAROLINA
NATIONAL WEATHER SERVICE NEWPORT/MOREHEAD CITY NC
700 PM EST MON JAN 23 2017

NOTE: "FAIR" INDICATES FEW OR NO CLOUDS BELOW 12,000 FEET
WITH NO SIGNIFICANT WEATHER AND/OR OBSTRUCTIONS TO VISIBILITY

NCZ015>017-031-032-045>047-102-103-240100-
NORTH COAST

CITY           SKY/WX    TMP DP  RH WIND       PRES   REMARKS
EDENTON        MOCLDY    56  50  78 NW6       29.26R
ELIZABETH CITY MOCLDY    55  52  89 N12       29.25R
KITTY HAWK     NOT AVBL
MANTEO         CLOUDY    51  51  99 CALM      29.24S

$$

NCZ045>047-081-094-103-104-240100-
CENTRAL COAST

CITY           SKY/WX    TMP DP  RH WIND       PRES   REMARKS
FRISCO         LGT RAIN  55  53  93 CALM      29.24S FOG

$$

NCZ095-097-098-100-101-240100-
SOUTHERN COAST

CITY           SKY/WX    TMP DP  RH WIND       PRES   REMARKS
BEAUFORT       CLOUDY    55  52  89 W7        29.27R
CEDAR ISLAND   NOT AVBL
JACKSONVILLE   CLOUDY    53  53 100 W9        29.30R
PINEY ISLAND   LGT RAIN N/A N/A N/A SW5       29.26R
WILMINGTON     LGT RAIN  53  52  96 NW7       29.33R


$$

NCZ011>013-027>030-043-044-078>080-089-090>093-098-240100-
COASTAL PLAIN

CITY           SKY/WX    TMP DP  RH WIND       PRES   REMARKS
AHOSKIE        LGT RAIN  51  49  92 N8        29.29R
CLINTON        CLOUDY    55  53  94 CALM      29.32R
ELIZABETHTOWN  CLOUDY    55  51  86 W5        29.34R
GOLDSBORO      MOCLDY    56  50  80 W6        29.27R
GREENVILLE     CLOUDY    59  46  63 NW5       29.33R
HAVELOCK       LGT RAIN  55  53  93 CALM      29.29R
KENANSVILLE    CLOUDY    52  50  93 CALM      29.31R
KINSTON        CLOUDY    54  52  94 CALM      29.30R
NEW BERN       RAIN      54  52  93 W7        29.31R FOG
RICHLANDS      LGT RAIN  52  51  97 W3        29.32R
ROCKY MOUNT    CLOUDY    53  50  89 NW14      29.31R
WASHINGTON     CLOUDY    57  48  73 SW3         N/A
WHITEVILLE     CLOUDY    54  50  88 CALM      29.34R

$$

AMZ130-135-150-152-154-156-158-170-250-252-270-ANZ085-086-088-633-658-670-240100-
MARINE OBSERVATIONS

STATION/POSITION TIME  TEMP    WIND        PRES    WAVE   SWELL
                       AIR SEA DIR/SP/G            HT/PER HT/PER
                 (UTC) (F)     (DEG/KT/KT) (MB)    (FT/S) (FT/S)
CHESAPEAKE LIGHT NOT AVBL
64 E VA BEACH    2350   56 55  160/  4/  6  989.6   12/11  11/11
DUCK             2354   54 46  220/  7/  8  989.4
2 E DUCK         0000      47                N/A     7/11   5/11
OREGON INLET     2354   51 50  260/  3/  4  989.7
13E OREGON INLT  NOT AVBL
HATTERAS CG      2354   57 57  260/  3/  4  989.4
DIAMOND BUOY     2350   62 76  330/ 12/ 16  989.4    7/11   7/11
CAPE LOOKOUT     0000   54     260/  7/  8  990.7
BEAUFORT LAB     2354   54 53  260/  1/  5  990.1
30 SE NEW RVR IN 0008   57 68  300/ 17/ 25  991.6
30 SE NEW RVR IN 2343      68                N/A     6/11   3/11
27 SE WRIGHTSVLE 0008   58 67  290/ 17/ 25  990.9
5 SE WRIGHTSVLE  0008   54 54  290/ 12/ 16  992.7
225 S CAPE HAT   2350   70 71  250/ 29/ 33  992.3   13/10  10/10
41 SE CHARLESTON 2350   61 69  280/ 21/ 25  994.0    9/ 8   7/ 8

$$



USA.gov is the U.S. government's official web portal to all federal, state and local government web resources and services.